When you browse on this site, cookies collect data to enhance your experience and personalize the content and advertising you see.
Visit our Privacy Policy to learn more. By continuing to use the site, you agree to this use of cookies and data.

Hourly Weather Gorshkovo

Today, 4 July, Saturday

Time Temperature Precipitation Wind Pressure Humidity
00:00 +20°C° 0 mm 2 mps 741 mmHg 91%
01:00 +20°C° 0 mm 3 mps 741 mmHg 92%
02:00 +19°C° 0 mm 3 mps 741 mmHg 92%
03:00 +19°C° 0 mm 2 mps 741 mmHg 91%
04:00 +19°C° 0.1 mm 2 mps 740 mmHg 90%
05:00 +20°C° 0.1 mm 2 mps 740 mmHg 90%
06:00 +20°C° 0.1 mm 3 mps 740 mmHg 89%
07:00 +21°C° 0 mm 3 mps 740 mmHg 85%
08:00 +24°C° 0 mm 3 mps 740 mmHg 82%
09:00 +25°C° 0 mm 2 mps 741 mmHg 76%
10:00 +26°C° 0.2 mm 2 mps 741 mmHg 73%
11:00 +27°C° 0.2 mm 2 mps 740 mmHg 69%
12:00 +28°C° 0.2 mm 2 mps 740 mmHg 65%
13:00 +28°C° 0.3 mm 2 mps 740 mmHg 65%
14:00 +28°C° 0.3 mm 2 mps 740 mmHg 65%
15:00 +28°C° 0.3 mm 2 mps 740 mmHg 66%
16:00 +27°C° 0.6 mm 2 mps 740 mmHg 71%
17:00 +26°C° 0.6 mm 2 mps 740 mmHg 77%
18:00 +25°C° 0.6 mm 2 mps 740 mmHg 82%
19:00 +24°C° 0.3 mm 1 mps 740 mmHg 83%
20:00 +23°C° 0.3 mm 1 mps 740 mmHg 83%
21:00 +23°C° 0.3 mm 1 mps 740 mmHg 83%
22:00 +22°C° 0 mm 1 mps 740 mmHg 85%
23:00 +22°C° 0 mm 1 mps 740 mmHg 87%

Tomorrow, 5 July, Sunday

Time Temperature Precipitation Wind Pressure Humidity
00:00 +21°C° 0 mm 1 mps 739 mmHg 89%
01:00 +21°C° 0.1 mm 1 mps 740 mmHg 90%
02:00 +21°C° 0.1 mm 1 mps 740 mmHg 91%
03:00 +21°C° 0.1 mm 1 mps 740 mmHg 92%
04:00 +21°C° 0.1 mm 1 mps 740 mmHg 92%
05:00 +21°C° 0.1 mm 1 mps 739 mmHg 92%
06:00 +21°C° 0.1 mm 1 mps 739 mmHg 92%
07:00 +22°C° 0.1 mm 1 mps 739 mmHg 92%
08:00 +22°C° 0.1 mm 1 mps 739 mmHg 91%
09:00 +23°C° 0.1 mm 1 mps 740 mmHg 90%
10:00 +24°C° 0.9 mm 1 mps 740 mmHg 85%
11:00 +25°C° 0.9 mm 1 mps 739 mmHg 80%
12:00 +26°C° 0.9 mm 1 mps 739 mmHg 75%
13:00 +26°C° 0.1 mm 1 mps 739 mmHg 73%
14:00 +27°C° 0.1 mm 2 mps 739 mmHg 70%
15:00 +27°C° 0.1 mm 2 mps 739 mmHg 68%
16:00 +27°C° 0.1 mm 2 mps 739 mmHg 71%
17:00 +27°C° 0.1 mm 2 mps 739 mmHg 74%
18:00 +26°C° 0.1 mm 2 mps 739 mmHg 78%
19:00 +25°C° 0.1 mm 2 mps 739 mmHg 79%
20:00 +24°C° 0.1 mm 2 mps 739 mmHg 81%
21:00 +21°C° 0.1 mm 2 mps 739 mmHg 83%
22:00 +20°C° 0.2 mm 2 mps 739 mmHg 83%
23:00 +20°C° 0.2 mm 2 mps 739 mmHg 84%

Day after tomorrow, 6 July, Monday

Time Temperature Precipitation Wind Pressure Humidity
00:00 +19°C° 0.2 mm 2 mps 739 mmHg 84%
01:00 +18°C° 0 mm 2 mps 739 mmHg 86%
02:00 +19°C° 0 mm 1 mps 739 mmHg 88%
03:00 +18°C° 0 mm 1 mps 739 mmHg 89%
04:00 +19°C° 0 mm 1 mps 739 mmHg 89%
05:00 +19°C° 0 mm 1 mps 739 mmHg 88%
06:00 +20°C° 0 mm 1 mps 739 mmHg 87%
07:00 +21°C° 0 mm 1 mps 739 mmHg 83%
08:00 +23°C° 0 mm 1 mps 739 mmHg 78%
09:00 +24°C° 0 mm 1 mps 740 mmHg 74%
10:00 +25°C° 0 mm 2 mps 740 mmHg 70%
11:00 +26°C° 0 mm 2 mps 740 mmHg 67%
12:00 +27°C° 0 mm 2 mps 739 mmHg 64%
13:00 +28°C° 0 mm 2 mps 739 mmHg 63%
14:00 +28°C° 0 mm 2 mps 739 mmHg 63%
15:00 +28°C° 0 mm 2 mps 739 mmHg 63%
16:00 +28°C° 0 mm 2 mps 739 mmHg 66%
17:00 +28°C° 0 mm 2 mps 738 mmHg 68%
18:00 +28°C° 0 mm 2 mps 738 mmHg 71%
19:00 +26°C° 0 mm 1 mps 738 mmHg 75%
20:00 +25°C° 0 mm 1 mps 738 mmHg 79%
21:00 +21°C° 0 mm 0 mps 738 mmHg 83%
22:00 +23°C° 0 mm 1 mps 738 mmHg 84%
23:00 +22°C° 0 mm 1 mps 738 mmHg 86%

7 July, Tuesday

Time Temperature Precipitation Wind Pressure Humidity
00:00 +22°C° 0 mm 1 mps 738 mmHg 87%
01:00 +22°C° 0.1 mm 1 mps 738 mmHg 88%
02:00 +21°C° 0.1 mm 1 mps 738 mmHg 88%
03:00 +21°C° 0.1 mm 1 mps 738 mmHg 89%
04:00 +21°C° 0 mm 1 mps 738 mmHg 88%
05:00 +21°C° 0 mm 1 mps 738 mmHg 88%
06:00 +21°C° 0 mm 2 mps 738 mmHg 87%
07:00 +23°C° 0 mm 2 mps 738 mmHg 84%
08:00 +25°C° 0 mm 2 mps 738 mmHg 80%
09:00 +26°C° 0 mm 3 mps 738 mmHg 76%
10:00 +27°C° 0.2 mm 3 mps 737 mmHg 72%
11:00 +29°C° 0.2 mm 3 mps 737 mmHg 67%
12:00 +30°C° 0.2 mm 3 mps 737 mmHg 63%
13:00 +30°C° 0 mm 3 mps 737 mmHg 63%
14:00 +30°C° 0 mm 3 mps 737 mmHg 63%
15:00 +31°C° 0 mm 3 mps 736 mmHg 64%
16:00 +30°C° 0 mm 3 mps 736 mmHg 69%
17:00 +29°C° 0 mm 3 mps 736 mmHg 74%
18:00 +29°C° 0 mm 3 mps 736 mmHg 79%
19:00 +28°C° 0 mm 3 mps 736 mmHg 81%
20:00 +26°C° 0 mm 3 mps 736 mmHg 82%
21:00 +25°C° 0 mm 4 mps 736 mmHg 84%
22:00 +25°C° 0 mm 4 mps 736 mmHg 82%
23:00 +25°C° 0 mm 4 mps 735 mmHg 80%

8 July, Wednesday

Time Temperature Precipitation Wind Pressure Humidity
00:00 +23°C° 0 mm 5 mps 735 mmHg 78%
01:00 +23°C° 0 mm 5 mps 735 mmHg 74%
02:00 +25°C° 0 mm 5 mps 735 mmHg 70%
03:00 +24°C° 0 mm 6 mps 735 mmHg 66%
04:00 +23°C° 0 mm 6 mps 735 mmHg 67%
05:00 +22°C° 0 mm 6 mps 734 mmHg 68%
06:00 +22°C° 0 mm 6 mps 734 mmHg 69%
07:00 +23°C° 0 mm 6 mps 734 mmHg 68%
08:00 +24°C° 0 mm 6 mps 734 mmHg 68%
09:00 +26°C° 0 mm 6 mps 734 mmHg 67%
10:00 +26°C° 0 mm 6 mps 734 mmHg 68%
11:00 +27°C° 0 mm 6 mps 734 mmHg 68%
12:00 +28°C° 0 mm 6 mps 734 mmHg 68%
13:00 +28°C° 0 mm 5 mps 734 mmHg 68%
14:00 +29°C° 0 mm 4 mps 734 mmHg 68%
15:00 +29°C° 0 mm 3 mps 733 mmHg 68%
16:00 +29°C° 0.4 mm 4 mps 733 mmHg 71%
17:00 +29°C° 0.4 mm 4 mps 733 mmHg 74%
18:00 +28°C° 0.4 mm 4 mps 732 mmHg 77%
19:00 +27°C° 0.5 mm 4 mps 732 mmHg 80%
20:00 +26°C° 0.5 mm 3 mps 732 mmHg 82%
21:00 +24°C° 0.5 mm 3 mps 732 mmHg 85%
22:00 +22°C° 2.4 mm 3 mps 732 mmHg 88%
23:00 +21°C° 2.4 mm 4 mps 732 mmHg 91%

9 July, Thursday

Time Temperature Precipitation Wind Pressure Humidity
00:00 +21°C° 2.4 mm 4 mps 732 mmHg 94%
01:00 +20°C° 0.7 mm 4 mps 732 mmHg 94%
02:00 +19°C° 0.7 mm 4 mps 732 mmHg 95%
03:00 +18°C° 0.7 mm 4 mps 732 mmHg 96%
04:00 +17°C° 0.3 mm 4 mps 732 mmHg 96%
05:00 +15°C° 0.3 mm 5 mps 733 mmHg 95%
06:00 +15°C° 0.3 mm 5 mps 733 mmHg 95%
07:00 +14°C° 0.1 mm 5 mps 734 mmHg 93%
08:00 +14°C° 0.1 mm 6 mps 734 mmHg 92%
09:00 +14°C° 0.1 mm 6 mps 734 mmHg 90%
10:00 +15°C° 0 mm 6 mps 735 mmHg 86%
11:00 +15°C° 0 mm 6 mps 736 mmHg 82%
12:00 +16°C° 0 mm 6 mps 736 mmHg 78%
13:00 +17°C° 0 mm 5 mps 737 mmHg 75%
14:00 +19°C° 0 mm 5 mps 737 mmHg 71%
15:00 +21°C° 0 mm 5 mps 737 mmHg 67%
16:00 +21°C° 0 mm 4 mps 738 mmHg 69%
17:00 +21°C° 0 mm 4 mps 738 mmHg 70%
18:00 +21°C° 0 mm 4 mps 738 mmHg 71%
19:00 +19°C° 0 mm 4 mps 738 mmHg 73%
20:00 +18°C° 0 mm 4 mps 738 mmHg 76%
21:00 +15°C° 0 mm 4 mps 739 mmHg 78%
22:00 +15°C° 0 mm 4 mps 739 mmHg 79%
23:00 +14°C° 0 mm 4 mps 739 mmHg 81%
Show more